Orbital Elements at Epoch 2459000.5 (2020-May-31.0) TDB
Reference: JPL 15 (heliocentric ecliptic J2000)
Element | Value | Uncertainty (1-sigma) | Units |
e | .0380173132897687 | 5.4135e-08 | |
a | 3.066529668683871 | 3.357e-08 | au |
q | 2.949948449557146 | 1.812e-07 | au |
i | 2.618702671123854 | 4.3517e-06 | deg |
node | 74.82136583518104 | 0.00012256 | deg |
peri | 47.00917244417486 | 0.00014203 | deg |
M | 241.7688926555884 | 7.357e-05 | deg |
tp | 2459644.666950968180 (2022-Mar-06.16695097) | 0.00040452 | TDB |
period | 1961.413603892004 5.37 | 3.2208e-05 8.818e-08 | d yr |
n | .1835410946909195 | 3.0139e-09 | deg/d |
Q | 3.183110887810597 | 3.4846e-08 | au |
|
| | Orbit Determination Parameters
Additional Information
|